軌道要素
Epoch 2003 Jan. 1.0 TT = JDT 2452640.5
T 2003 Jan. 16.44171 TT MPC
q 2.1402132 (2000.0) P Q
n 0.14622444 Peri. 6.27485 +0.99155615 +0.12799070
a 3.5682566 Node 346.31876 -0.12248127 +0.87151935
e 0.4002076 Incl. 5.05774 -0.04259982 +0.47336287
P 6.74
From 131 observations 2002 July 11-2009 Nov. 17, mean residual 0".5.
|